Simultaneous Nadir Overpasses (SNOs) Predictions

Prediction of SNOs between NOAA-15 and METOP-C Satellite Orbit:

Table of predicted SNOs for the next 14.0 days since TLE Epoch: 3/6/2021
Index Date (NOAA-15) Time (NOAA-15) Lat,Lon (NOAA-15) SZA (NOAA-15 ) Date (METOP-C) Time (METOP-C) Lat,Lon (METOP-C) SZA (METOP-C ) Distance(km) Time Diff (sec)
1 03/07/2021 16:18:42 -80.98, 152.45 92.49 03/07/2021 16:17:37 -80.99, 152.39 92.51 2.01 65
2 03/07/2021 17:09:17 80.99, -40.40 87.49 03/07/2021 17:08:17 80.99, -40.26 87.48 2.43 60
3 03/07/2021 17:59:45 -80.99, 126.94 92.53 03/07/2021 17:58:59 -80.99, 126.90 92.56 0.72 46
4 03/07/2021 18:50:20 81.00, -65.91 87.45 03/07/2021 18:49:39 80.99, -65.76 87.44 2.91 41
5 03/07/2021 19:40:47 -80.98, 101.79 92.55 03/07/2021 19:40:20 -81.00, 101.77 92.56 1.33 27
6 03/07/2021 20:31:22 80.99, -91.05 87.43 03/07/2021 20:31:00 81.00, -90.88 87.44 2.99 22
7 03/07/2021 21:21:50 -81.00, 76.27 92.59 03/07/2021 21:21:42 -80.99, 76.28 92.60 0.73 8
8 03/07/2021 22:12:24 80.99,-116.20 87.41 03/07/2021 22:12:22 80.99,-116.37 87.39 3.10 2
9 03/07/2021 23:02:52 -80.99, 51.13 92.62 03/07/2021 23:03:03 -81.00, 51.15 92.60 0.98 11
10 03/07/2021 23:53:27 81.00,-141.71 87.37 03/07/2021 23:53:44 80.98,-141.87 87.35 3.29 17
11 03/08/2021 00:43:55 -81.00, 25.61 92.65 03/08/2021 00:44:25 -80.99, 25.66 92.65 1.40 30
12 03/08/2021 01:34:29 80.99,-166.85 87.35 03/08/2021 01:35:05 80.99,-166.99 87.35 2.44 36
13 03/08/2021 02:24:57 -81.00, 0.46 92.68 03/08/2021 02:25:46 -81.00, 0.53 92.65 1.26 49
14 03/08/2021 03:15:31 80.99, 168.00 87.33 03/08/2021 03:16:26 81.00, 167.88 87.35 2.55 55
15 03/08/2021 04:06:00 -81.01, -25.05 92.72 03/08/2021 04:07:08 -80.99, -24.96 92.69 2.20 68



Historial Predications of SNOs between NOAA-15 and METOP-C
